[[{"header":{"parameterUnit":"m.s-1","parameterCategory":1,"la1":30.2991,"la2":30.254,"lo1":-89.0895,"lo2":-89.0444,"dy":0.0017,"dx":0.0017,"nx":28,"ny":28,"refTime":"2024-10-07T21:00:00:Z","depth":0,"parameterNumber":2,"parameterNumberName":"U-component_of_WINDS"},"data":[0,0,0,0,0,0,0,0,0,0,0,0,0,0,0,0,0,0,0,0,0,0,0,0,0,0,0,0,0,0,0,0,0,0,0,0,0,0,0,0,0,0,0,0,0,0,0,0,0,0,0,0,0,0,0,0,0,0,-1.462,-1.462,0,-1.4658,-1.4659,-1.4659,-1.4635,-1.4634,-1.4633,-1.4632,-1.4672,-1.4675,-1.4677,0,0,0,0,0,0,0,0,0,0,0,0,0,-1.4527,-1.4529,-1.462,-1.462,-1.4621,-1.4658,-1.4659,-1.4659,-1.4635,-1.4634,-1.4633,-1.4631,-1.4672,-1.4674,-1.4677,0,0,0,0,0,0,0,0,0,0,0,0,0,-1.4567,-1.4529,-1.462,-1.4613,-1.4613,-1.4658,-1.4659,-1.4659,-1.4636,-1.4634,-1.4632,-1.4631,-1.4671,-1.4674,-1.4677,-1.4731,0,0,-1.4687,-1.4688,0,0,0,0,0,0,0,0,-1.4564,-1.457,-1.4614,-1.4614,-1.4614,-1.464,-1.4641,-1.4684,-1.4636,-1.4627,-1.4632,-1.463,-1.4663,-1.4667,-1.4678,-1.4733,-1.4735,-1.4687,-1.4689,-1.4691,-1.4692,0,0,0,0,0,0,0,-1.4562,-1.4568,-1.4635,-1.4615,-1.4614,-1.4609,-1.4613,-1.4649,-1.4654,-1.4628,-1.4626,-1.4631,-1.4663,-1.4675,-1.4679,-1.4735,-1.4687,-1.469,-1.4692,-1.4693,-1.4838,-1.484,0,0,0,0,0,0,-1.4559,-1.4566,-1.4634,-1.4636,-1.4584,-1.4612,-1.4616,-1.4633,-1.4654,-1.4655,-1.4632,-1.463,-1.467,-1.4675,-1.468,-1.4746,-1.4691,-1.4694,-1.4695,-1.4836,-1.4838,-1.484,0,0,0,0,0,0,-1.4557,-1.4566,-1.4632,-1.4601,-1.4609,-1.4615,-1.4635,-1.4635,-1.4647,-1.4657,-1.4658,-1.4644,-1.4669,-1.4675,-1.4719,-1.4747,-1.4695,-1.4698,-1.4834,-1.4837,-1.4839,-1.4877,0,0,0,0,0,0,-1.4555,-1.4565,-1.4585,-1.4601,-1.4611,-1.467,-1.4637,-1.4637,-1.4653,-1.4649,-1.4668,-1.467,-1.4668,-1.4714,-1.4722,-1.475,-1.4701,-1.4831,-1.4835,-1.4838,-1.4873,-1.488,-1.4887,0,0,0,0,0,-1.4552,-1.4595,-1.4587,-1.4595,-1.4636,-1.4672,-1.4677,-1.4674,-1.4655,-1.4676,-1.4682,-1.4669,-1.4742,-1.4719,-1.4727,-1.4757,-1.4829,-1.4834,-1.4838,-1.487,-1.4879,-1.4887,0,0,0,0,0,0,-1.4582,-1.4597,-1.4588,-1.4637,-1.4653,-1.4668,-1.4694,-1.4684,-1.4707,-1.4703,-1.4699,-1.4703,-1.4749,-1.4757,-1.4731,-1.4811,-1.4783,-1.4789,-1.4804,-1.4813,-1.4819,-1.4817,-1.4703,0,0,0,0,0,-1.4594,-1.4622,-1.4633,-1.4675,-1.4684,-1.4688,-1.4703,-1.4699,-1.4716,-1.4723,-1.4733,-1.475,-1.4777,-1.4795,-1.482,-1.4873,-1.4878,-1.4898,-1.4905,-1.491,-1.4917,-1.4946,-1.4956,-1.4854,-1.4854,-1.4854,0,0,-1.462,-1.4632,-1.4649,-1.4682,-1.4694,-1.4723,-1.4694,-1.4725,-1.4747,-1.4728,-1.477,-1.4778,-1.4797,-1.4845,-1.4867,-1.4854,-1.4945,-1.4916,-1.492,-1.4923,-1.4952,-1.4961,-1.497,-1.4857,-1.4857,-1.4856,0,0,-1.4683,-1.4694,-1.4731,-1.4744,-1.4762,-1.4764,-1.4773,-1.4789,-1.4793,-1.4835,-1.4821,-1.4847,-1.4893,-1.4908,-1.4921,-1.4989,-1.4978,-1.4997,-1.5034,-1.5063,-1.5071,-1.5079,-1.5104,-1.5113,-1.5003,-1.5003,-1.5003,0,-1.4714,-1.4757,-1.4751,-1.4785,-1.48,-1.4783,-1.4821,-1.4833,-1.486,-1.4871,-1.4855,-1.4913,-1.4924,-1.4977,-1.4993,-1.5004,-1.5015,-1.4996,-1.507,-1.5078,-1.5084,-1.5109,-1.5118,-1.5005,-1.5005,-1.5005,-1.5005,0,-1.4794,-1.4824,-1.4851,-1.4877,-1.4895,-1.493,-1.4931,-1.495,-1.4944,-1.4948,-1.4991,-1.5004,-1.5032,-1.5044,-1.5039,-1.5096,-1.5087,-1.5071,-1.5043,-1.5096,-1.5119,-1.5129,-1.5009,-1.5008,-1.5007,-1.5006,0,0,-1.4878,-1.49,-1.491,-1.4922,-1.4941,-1.4965,-1.4999,-1.5026,-1.5043,-1.5061,-1.5091,-1.513,-1.5115,-1.5131,-1.5127,-1.5152,-1.5207,-1.5133,-1.5134,-1.5148,-1.5272,-1.5286,-1.5297,-1.5199,-1.5201,-1.5202,-1.5271,0,-1.4943,-1.5004,-1.5,-1.5057,-1.5085,-1.5069,-1.51,-1.5115,-1.512,-1.5144,-1.5149,-1.5178,-1.5155,-1.5164,-1.5189,-1.5195,-1.5232,-1.519,-1.5228,-1.523,-1.5226,-1.5308,-1.5323,-1.5388,-1.528,-1.5282,-1.5283,0,-1.5028,-1.5049,-1.5109,-1.5124,-1.5136,-1.5163,-1.5188,-1.5212,-1.5229,-1.523,-1.5247,-1.5239,-1.5275,-1.5245,-1.5295,-1.5266,-1.5281,-1.5287,-1.5289,-1.5294,-1.5261,-1.5318,-1.5408,-1.5418,-1.5296,-1.5295,-1.5294,0,-1.5085,-1.5129,-1.517,-1.5181,-1.5199,-1.5219,-1.5228,-1.5243,-1.526,-1.5281,-1.5292,-1.5317,-1.5332,-1.5352,-1.5352,-1.5329,-1.5403,-1.5372,-1.5406,-1.5406,-1.5424,-1.5423,-1.552,-1.543,-1.543,-1.543,-1.543,0,-1.516,-1.5197,-1.5197,-1.5223,-1.5265,-1.526,-1.5302,-1.5308,-1.5322,-1.5349,-1.5336,-1.5363,-1.5359,-1.5386,-1.5385,-1.5428,-1.5434,-1.5437,-1.5437,-1.5439,-1.5439,-1.545,-1.5447,-1.5433,-1.5432,-1.5432,-1.5431,0,-1.5232,-1.5233,-1.5278,-1.5291,-1.5296,-1.5326,-1.5338,-1.5363,-1.5366,-1.5401,-1.5409,-1.5413,-1.5444,-1.5445,-1.5479,-1.5479,-1.5531,-1.5525,-1.5526,-1.5525,-1.556,-1.5557,-1.5669,-1.5684,-1.5583,-1.5584,-1.5585,0,-1.528,-1.5309,-1.5326,-1.5343,-1.5353,-1.5381,-1.5398,-1.5394,-1.5412,-1.5434,-1.5456,-1.5485,-1.5508,-1.5558,-1.5565,-1.5592,-1.5587,-1.5624,-1.5591,-1.5593,-1.559,-1.5589,-1.5593,-1.5632,-1.5633,-1.5634,-1.5634,0,-1.5367,-1.5366,-1.539,-1.5415,-1.5436,-1.5455,-1.5473,-1.5488,-1.5486,-1.5507,-1.5538,-1.5556,-1.5592,-1.5621,-1.5647,-1.5656,-1.5646,-1.5644,-1.5654,-1.5658,-1.5658,-1.566,-1.5545,-1.5642,-1.5642,-1.5641,-1.5641,-1.564,-1.543,-1.5455,-1.5471,-1.5499,-1.5512,-1.5529,-1.5554,-1.5559,-1.5585,-1.5613,-1.5609,-1.5644,-1.566,-1.5694,-1.5705,-1.5733,-1.572,-1.5734,-1.5738,-1.5742,-1.5746,-1.5652,-1.5737,-1.5737,-1.5737,-1.5737,-1.5737,0,-1.5517,-1.5526,-1.5552,-1.5578,-1.56,-1.5586,-1.5606,-1.5626,-1.5656,-1.5672,-1.5695,-1.5731,-1.576,-1.5768,-1.5796,-1.5817,-1.5813,-1.5824,-1.5824,-1.5826,-1.5755,-1.5745,-1.5827,-1.5827,-1.5827,-1.5827,-1.5827,-1.5827,-1.5565,-1.5608,-1.5609,-1.5657,-1.5666,-1.57,-1.5712,-1.5729,-1.5741,-1.5782,-1.5805,-1.5811,-1.5824,-1.5853,-1.5879,-1.588,-1.5892,-1.5906,-1.5907,-1.584,-1.5831,-1.5823,-1.5813,-1.5909,-1.5909,-1.5976,-1.5977,-1.5977]},{"header":{"parameterUnit":"m.s-1","parameterCategory":1,"la1":30.2991,"la2":30.254,"lo1":-89.0895,"lo2":-89.0444,"dy":0.0017,"dx":0.0017,"nx":28,"ny":28,"refTime":"2024-10-07T21:00:00:Z","depth":0,"parameterNumber":3,"parameterNumberName":"V-component_of_WINDS"},"data":[0,0,0,0,0,0,0,0,0,0,0,0,0,0,0,0,0,0,0,0,0,0,0,0,0,0,0,0,0,0,0,0,0,0,0,0,0,0,0,0,0,0,0,0,0,0,0,0,0,0,0,0,0,0,0,0,0,0,-5.0923,-5.0924,0,-5.0951,-5.0951,-5.0951,-5.089,-5.0888,-5.0886,-5.0884,-5.0908,-5.091,-5.0913,0,0,0,0,0,0,0,0,0,0,0,0,0,-5.0815,-5.0817,-5.0923,-5.0924,-5.0924,-5.095,-5.0951,-5.0951,-5.089,-5.0888,-5.0885,-5.0883,-5.0907,-5.091,-5.0913,0,0,0,0,0,0,0,0,0,0,0,0,0,-5.0854,-5.0818,-5.0923,-5.0897,-5.0895,-5.095,-5.0951,-5.0951,-5.089,-5.0887,-5.0885,-5.0882,-5.0906,-5.091,-5.0913,-5.0995,0,0,-5.0924,-5.0926,0,0,0,0,0,0,0,0,-5.0852,-5.0858,-5.09,-5.0899,-5.0896,-5.0914,-5.0921,-5.0966,-5.0891,-5.0892,-5.0884,-5.088,-5.0912,-5.0915,-5.0926,-5.0996,-5.0997,-5.0925,-5.0927,-5.0929,-5.093,0,0,0,0,0,0,0,-5.0849,-5.0857,-5.0934,-5.0901,-5.0899,-5.0882,-5.0885,-5.0929,-5.0918,-5.0892,-5.0887,-5.0891,-5.091,-5.0923,-5.0926,-5.0997,-5.0925,-5.0928,-5.093,-5.0932,-5.1137,-5.114,0,0,0,0,0,0,-5.0851,-5.0855,-5.0933,-5.0935,-5.0867,-5.0887,-5.0889,-5.0911,-5.0917,-5.0915,-5.0894,-5.0889,-5.0918,-5.0922,-5.0927,-5.1024,-5.0929,-5.0932,-5.0934,-5.1134,-5.1137,-5.1141,0,0,0,0,0,0,-5.0848,-5.0858,-5.0932,-5.0894,-5.0902,-5.0892,-5.0917,-5.0913,-5.0926,-5.0919,-5.0916,-5.0909,-5.0916,-5.0922,-5.0979,-5.1024,-5.0934,-5.0937,-5.113,-5.1135,-5.1139,-5.1219,0,0,0,0,0,0,-5.0846,-5.0858,-5.0889,-5.0895,-5.0904,-5.0985,-5.0919,-5.0916,-5.0933,-5.0926,-5.0933,-5.0931,-5.0914,-5.0974,-5.0983,-5.1028,-5.094,-5.1126,-5.1132,-5.1138,-5.1212,-5.1226,-5.1238,0,0,0,0,0,-5.0842,-5.0909,-5.0891,-5.0901,-5.0944,-5.0987,-5.0992,-5.0973,-5.0937,-5.0968,-5.0964,-5.0931,-5.1018,-5.098,-5.099,-5.1036,-5.1123,-5.113,-5.1137,-5.1207,-5.1223,-5.1238,0,0,0,0,0,0,-5.0907,-5.0909,-5.0889,-5.0961,-5.0975,-5.0977,-5.1016,-5.0991,-5.1014,-5.1006,-5.0979,-5.0981,-5.1044,-5.1045,-5.1004,-5.1117,-5.1064,-5.1074,-5.1114,-5.1129,-5.1142,-5.1141,-5.0943,0,0,0,0,0,-5.093,-5.0967,-5.0966,-5.1029,-5.1037,-5.1026,-5.1044,-5.1028,-5.104,-5.1045,-5.1045,-5.1058,-5.1088,-5.1109,-5.1136,-5.1212,-5.1213,-5.1249,-5.1262,-5.1272,-5.1281,-5.1323,-5.1339,-5.1165,-5.1165,-5.1165,0,0,-5.0977,-5.0983,-5.1008,-5.1043,-5.1051,-5.109,-5.1031,-5.1073,-5.1101,-5.1051,-5.1106,-5.1107,-5.1119,-5.1187,-5.1216,-5.119,-5.1329,-5.1281,-5.129,-5.1293,-5.1332,-5.1349,-5.1363,-5.117,-5.1169,-5.1168,0,0,-5.1083,-5.1091,-5.1146,-5.1156,-5.1171,-5.1163,-5.1177,-5.1183,-5.1182,-5.1238,-5.1202,-5.1234,-5.1286,-5.1297,-5.1309,-5.1422,-5.1392,-5.1431,-5.1498,-5.1539,-5.1553,-5.1565,-5.1606,-5.1621,-5.1439,-5.144,-5.144,0,-5.114,-5.1197,-5.1176,-5.1222,-5.1239,-5.1198,-5.1253,-5.1263,-5.1286,-5.1298,-5.1268,-5.1335,-5.1339,-5.141,-5.1438,-5.1449,-5.1463,-5.143,-5.1553,-5.1565,-5.1575,-5.1615,-5.163,-5.1444,-5.1444,-5.1443,-5.1443,0,-5.1267,-5.1307,-5.1349,-5.1375,-5.1396,-5.1446,-5.1432,-5.1455,-5.1438,-5.1433,-5.149,-5.1495,-5.1524,-5.1539,-5.1521,-5.1607,-5.1591,-5.1557,-5.1504,-5.1597,-5.1634,-5.1649,-5.1451,-5.1449,-5.1448,-5.1447,0,0,-5.1414,-5.1429,-5.1445,-5.1457,-5.1471,-5.1501,-5.1549,-5.1579,-5.1601,-5.1618,-5.1658,-5.1704,-5.1674,-5.1688,-5.1671,-5.1707,-5.1798,-5.1669,-5.1669,-5.1694,-5.1895,-5.1921,-5.1939,-5.1778,-5.1781,-5.1783,-5.1895,0,-5.152,-5.1606,-5.1589,-5.1672,-5.1709,-5.1671,-5.1713,-5.1726,-5.1723,-5.1754,-5.1749,-5.1784,-5.174,-5.1749,-5.1783,-5.178,-5.1838,-5.1771,-5.1815,-5.1817,-5.1815,-5.1958,-5.1985,-5.209,-5.1909,-5.1911,-5.1913,0,-5.1656,-5.1681,-5.1768,-5.1779,-5.1794,-5.1832,-5.1859,-5.1889,-5.1903,-5.1898,-5.1915,-5.1891,-5.1939,-5.1885,-5.195,-5.1905,-5.1922,-5.1923,-5.1927,-5.1931,-5.1872,-5.1967,-5.2123,-5.214,-5.1935,-5.1933,-5.1931,0,-5.1757,-5.1812,-5.1872,-5.1883,-5.1896,-5.1924,-5.1931,-5.1942,-5.1961,-5.1984,-5.1997,-5.2024,-5.2039,-5.2061,-5.2046,-5.2007,-5.2114,-5.2058,-5.2112,-5.2112,-5.2137,-5.2136,-5.2299,-5.2145,-5.2145,-5.2145,-5.2145,0,-5.1878,-5.1933,-5.1918,-5.1955,-5.2016,-5.1996,-5.2056,-5.2058,-5.2069,-5.2105,-5.2072,-5.2107,-5.2084,-5.2116,-5.2104,-5.2161,-5.2167,-5.2165,-5.2161,-5.2169,-5.217,-5.218,-5.2173,-5.2149,-5.2148,-5.2147,-5.2147,0,-5.2002,-5.1993,-5.2057,-5.2065,-5.2068,-5.2113,-5.2119,-5.2153,-5.2148,-5.2195,-5.2204,-5.2196,-5.2233,-5.2219,-5.2258,-5.2249,-5.2323,-5.2309,-5.2319,-5.2316,-5.2371,-5.2367,-5.2548,-5.2571,-5.2402,-5.2403,-5.2405,0,-5.208,-5.2123,-5.2136,-5.2159,-5.2169,-5.2206,-5.2226,-5.2208,-5.223,-5.2251,-5.2283,-5.2317,-5.2344,-5.2404,-5.2401,-5.243,-5.2418,-5.2479,-5.2422,-5.2429,-5.2421,-5.2419,-5.2424,-5.2491,-5.2493,-5.2495,-5.2496,0,-5.2222,-5.2216,-5.2248,-5.2279,-5.2305,-5.2328,-5.2348,-5.2369,-5.2351,-5.2378,-5.2417,-5.2438,-5.2478,-5.2513,-5.254,-5.2545,-5.2519,-5.2514,-5.2528,-5.2537,-5.2542,-5.2542,-5.2352,-5.251,-5.2509,-5.2508,-5.2507,-5.2506,-5.2326,-5.2363,-5.2379,-5.2416,-5.2429,-5.2449,-5.2483,-5.2483,-5.2515,-5.2549,-5.2535,-5.258,-5.2593,-5.2627,-5.2636,-5.267,-5.2646,-5.2667,-5.2672,-5.2678,-5.2686,-5.2536,-5.2675,-5.2674,-5.2674,-5.2674,-5.2673,0,-5.2467,-5.2476,-5.251,-5.2541,-5.257,-5.2544,-5.2565,-5.2591,-5.2631,-5.2647,-5.2675,-5.272,-5.2754,-5.2754,-5.2785,-5.2813,-5.2801,-5.2822,-5.282,-5.2822,-5.2704,-5.269,-5.2831,-5.2831,-5.2831,-5.2831,-5.2831,-5.283,-5.2544,-5.2605,-5.2602,-5.267,-5.2677,-5.2723,-5.2737,-5.2756,-5.2769,-5.2821,-5.285,-5.285,-5.286,-5.2892,-5.2922,-5.2921,-5.2935,-5.2961,-5.2955,-5.2846,-5.283,-5.2815,-5.2802,-5.2963,-5.2964,-5.307,-5.3071,-5.3072]}]]